User: anonymous   Login
Location: Wien
(48.2082°N, 16.3738°E)
Time: 16:28:30
(UTC+02:00)
Language:

nSIGHT-1 - Orbit

View from above orbital plane
View from above orbital plane
View from above satellite
View from above satellite

Ground track
Ground track

The orbit data is extracted from the following two-line orbital elements,

1 42726U 98067MF  19141.14632360  .00017404  00000-0  14411-3 0  9992
2 42726  51.6369  94.6104 0006182  67.4440 292.7211 15.70340866113334
Epoch (UTC): 21 May 2019 03:30:42
Eccentricity: 0.0006182
inclination: 51.6369°
perigee height: 354 km
apogee height: 362 km
right ascension of ascending node: 94.6104°
argument of perigee: 67.4440°
revolutions per day: 15.70340866
mean anomaly at epoch: 292.7211°
orbit number at epoch: 11333

The dashed part of the orbit path shows where the satellite is in the earth's shadow,  

DLR